Flag for Canada Weather past 2 weeks in Prince George, British Columbia, Canada

Now
37 °F

Sunny.


Feels Like: 29 °F
Forecast: 26 / 36 °F
Wind: 14 mph from Southwest

Location: Prince George

Current Time: Dec 19, 2014 at 1:29:48 PM

Latest Report: Dec 19, 2014 at 12:00 PM


Visibility: 9 mi

Pressure: 29.67 "Hg

Humidity: 81%

Dew point: 32 °F

Location of Prince GeorgeLocation

Historic Weather in Prince George — Graph

°F

Prince George temperature yesterday

Maximum temperature yesterday: 30 °F (at 9:00 AM)
Minimum temperature yesterday: 28 °F (at 12:00 AM)
Average temperature yesterday: 29 °F

Past Weeks' High & Low Weather Summary

 TemperatureHumidityPressure
High52 °F (Dec 9, 11:56 AM)100% (Dec 5, 2:00 PM)30.37 "Hg (Dec 5, 2:00 PM)
Low10 °F (Dec 5, 7:55 AM)54% (Dec 9, 11:56 AM)29.13 "Hg (Dec 10, 7:00 PM)
Average29 °F93%29.86 "Hg
* Reported Dec 4 12:04 PM — Dec 19 12:00 Noon, Prince George, Weather by CustomWeather, © 2014

Note: Actual official high and low records may vary slightly from our data, if they occured in-between our weather recording intervals... More about our weather records

Advertising

Prince George weather history for previous 24 hours

 ConditionsComfort  
Time TempWeatherWind HumidityBarometerVisibility
12:00 PM
Dec 19
37 °FSunny.14 mph81%29.67 "Hg9 mi
11:00 AM37 °FSunny.14 mph81%29.67 "Hg9 mi
10:00 AM36 °FSunny.17 mph87%29.66 "Hg9 mi
9:00 AM36 °FSunny.16 mph87%29.65 "Hg9 mi
8:00 AM36 °FPartly cloudy.12 mph87%29.62 "Hg9 mi
7:00 AM36 °FOvercast.7 mph87%29.62 "Hg9 mi
6:00 AM32 °FLight snow. Mostly cloudy.3 mph93%29.61 "Hg9 mi
5:00 AM30 °FMostly cloudy.5 mph100%29.60 "Hg9 mi
4:00 AM30 °FPartly cloudy.7 mph93%29.60 "Hg9 mi
3:00 AM30 °FMostly cloudy.5 mph100%29.60 "Hg9 mi
2:00 AM30 °FMostly cloudy.5 mph100%29.62 "Hg9 mi
1:00 AM30 °FPassing clouds.7 mph100%29.61 "Hg9 mi
12:00 AM30 °FPassing clouds.6 mph100%29.62 "Hg9 mi
11:00 PM
Dec 18
30 °FMostly cloudy.6 mph100%29.62 "Hg9 mi
10:00 PM28 °FOvercast.3 mph100%29.65 "Hg9 mi
9:00 PM28 °FPassing clouds.3 mph100%29.68 "Hg9 mi
8:00 PM28 °FIce fog.5 mph100%29.69 "Hg1 mi
7:02 PM30 °FIce fog.7 mph100%29.71 "Hg1 mi
6:00 PM30 °FSnow. Ice fog.6 mph100%29.74 "Hg1 mi
5:00 PM30 °FIce fog.6 mph100%29.77 "Hg1 mi
4:00 PM30 °FIce fog.2 mph100%29.79 "Hg2 mi
3:00 PM30 °FLow clouds.5 mph100%29.79 "Hg8 mi
2:00 PM30 °FLow clouds.5 mph100%29.79 "Hg9 mi
1:01 PM30 °FIce fog.6 mph100%29.81 "Hg3 mi
Weather by CustomWeather, © 2014

See weather overviewHow to use our weather pages